{"data":{"norad_id":64233,"epoch":"2026-05-25T04:40:19.608096Z","epoch_age_seconds":54125,"freshness":"FRESH","line1":"1 64233U 25119A   26145.19467139  .00181169  00000+0  13834-2 0  9990","line2":"2 64233  43.0011 108.2648 0002379 279.5715  80.4884 15.70863571 57271","mean_motion":15.70863571,"eccentricity":0.0002379,"inclination_deg":43.0011,"raan_deg":108.2648,"arg_perigee_deg":279.5715,"mean_anomaly_deg":80.4884,"bstar":0.0013834,"rev_number":5727,"period_min":91.669322949752,"perigee_km":354.82553914135,"apogee_km":358.02984502184,"semimajor_km":6734.5646920816,"source":"CELESTRAK","updated_at":"2026-05-25T13:38:20.350262Z"}}